Location: Br�goulou
(48.2102°N, 4.5358°W)
Time: 17:41:06
(UTC+00:00)

Daily predictions for brighter satellites

Satellite Brightness Start Highest point End
(mag) Time Altitude Azimuth Time Altitude Azimuth Time Altitude Azimuth
SL-23 DEB 4.5 20:56:38 10° W 21:00:03 64° N 21:05:17 10° ENE
Cosmos 2333 Rocket 3.8 20:57:26 10° SE 21:00:47 16° E 21:04:09 10° ENE
Cosmos 1727 Rocket 4.2 20:55:09 10° S 21:01:19 60° E 21:07:29 10° NNE
Cosmos 1605 Rocket 4.3 20:57:09 10° NNW 21:03:34 76° W 21:09:55 10° S
Cosmos 1953 3.0 21:02:21 10° N 21:06:12 39° ENE 21:10:01 10° SE
Meteor 2-20 4.5 21:00:30 10° S 21:06:35 79° E 21:12:42 10° NNE
Cosmos 1741 Rocket 4.2 21:01:29 10° NNW 21:06:44 65° ENE 21:11:58 10° SSE
Cosmos 1626 3.7 21:04:46 10° SE 21:07:28 20° E 21:10:11 10° NE
USA 238 DEB 3.9 21:01:11 10° SW 21:07:45 76° NW 21:14:43 10° NE
USA 238 3.9 21:01:17 10° SW 21:07:52 77° NW 21:14:49 10° NE
SPOT 3 Rocket 3.7 21:03:01 10° S 21:08:11 77° WSW 21:13:24 10° NNW
ERS-2 4.4 21:06:55 10° N 21:10:08 29° WNW 21:13:20 10° SW
Cosmos 1844 4.3 21:05:39 10° NNW 21:11:02 47° NE 21:16:25 10° SE
Cosmos 2219 Rocket 3.8 21:08:25 10° SE 21:11:51 17° E 21:15:18 10° ENE
Cosmos 2285 Rocket 4.2 21:06:10 10° SSW 21:12:37 85° WNW 21:19:06 10° NNE
CENTAUR R/B 3.0 21:09:51 10° SW 21:15:51 72° NW 21:23:08 10° NE
NOSS 8 (A) 4.1 21:20:33 10° SSW 21:23:53 66° SE 21:26:48 10° NE
KORONAS-FOTON 3.9 21:22:38 10° S 21:26:21 57° E 21:30:05 10° NNE
Cosmos 1025 Rocket 3.7 21:22:56 10° SSE 21:26:57 37° E 21:30:59 10° NNE
Cosmos 292 Rocket 4.2 21:23:02 10° SSW 21:27:51 69° WNW 21:32:40 10° NNE
Aureole 1 Rocket 4.2 21:23:06 10° NNW 21:28:48 71° ENE 21:35:49 11° SSE
Genesis I 4.1 21:25:39 10° SW 21:29:26 54° NW 21:33:20 10° NNE
Cosmos 1459 Rocket 4.0 21:25:51 10° N 21:31:55 70° E 21:37:54 10° SSE
CARTOSAT-1 3.6 21:27:37 10° SSE 21:31:56 79° ENE 21:36:16 10° N
Cosmos 1461 2.9 21:28:16 10° NW 21:32:32 88° NE 21:36:05 13° SE
Resurs 01 Rocket 3.0 21:29:20 10° SSW 21:33:21 35° W 21:37:24 10° NNW
SL-16 R/B 2.6 21:27:53 10° SW 21:33:33 71° WNW 21:39:14 10° NNE
Cosmos 2360 Rocket 2.3 21:28:07 10° S 21:33:39 58° ESE 21:39:11 10° NE
USA 245 4.3 21:30:35 10° S 21:35:23 73° W 21:41:10 10° NNW
Cosmos 2322 Rocket 2.3 21:29:54 10° SSW 21:35:37 85° WNW 21:41:23 10° NNE
JB-3 4.3 21:34:09 10° NNE 21:38:07 76° ESE 21:42:08 10° S
USA 267 4.3 21:32:27 10° E 21:38:37 46° NNE 21:44:47 10° WNW
Cosmos 1975 Rocket 3.1 21:36:23 10° S 21:40:44 88° WNW 21:45:09 10° N
Cosmos 1000 Rocket 4.5 21:35:48 10° S 21:41:54 71° E 21:48:01 10° NNE
Cosmos 1674 2.6 21:39:07 10° S 21:42:50 90° ESE 21:46:34 10° N
Meteor 1-16 Rocket 4.2 21:38:25 10° NNW 21:43:57 82° W 21:49:14 10° S
Cosmos 1110 Rocket 4.0 21:39:13 10° S 21:44:19 62° ESE 21:49:28 10° NNE
ATLAS CENTAUR R/B 2.1 21:40:14 10° NNW 21:44:25 51° NE 21:48:22 13° ESE
Meteor 2-11 Rocket 4.5 21:38:51 10° N 21:45:01 78° E 21:50:42 12° SSE
SPOT 5 3.0 21:41:32 12° SSE 21:46:17 79° ENE 21:51:13 10° NNW
Cosmos 1300 3.5 21:48:26 10° N 21:52:01 37° ENE 21:54:30 17° SE
COSMOS 2428 3.7 21:48:21 14° SSE 21:52:19 28° ESE 21:57:08 10° NE
Terra 1.9 21:49:22 15° SSE 21:53:18 66° ENE 21:58:02 10° N
Cosmos 2061 Rocket 4.2 21:47:20 10° N 21:53:47 66° ENE 21:59:13 15° SSE
Cosmos 2322 4.2 21:48:45 10° S 21:53:58 40° ESE 21:59:13 10° NE
Cosmos 2237 4.3 21:51:40 10° SSW 21:57:22 81° WNW 22:03:06 10° NNE
Cosmos 2278 Rocket 3.7 21:53:49 10° NNW 21:58:43 29° NE 22:03:35 10° ESE
Cosmos 405 3.2 21:56:18 10° N 21:59:42 52° ENE 22:01:49 20° SE
Lacrosse 5 3.6 21:56:33 10° WNW 22:00:15 21° SW 22:03:58 10° S
Cosmos 2123 Rocket 4.1 21:59:12 11° S 22:05:08 67° E 22:11:26 10° NNE
SL-8 R/B 3.9 22:02:54 10° W 22:07:35 53° SSW 22:10:57 18° SE
Cosmos 1844 Rocket 3.0 22:02:27 10° NNW 22:08:02 60° WSW 22:12:33 16° S
Cosmos 1340 2.7 22:06:52 17° S 22:09:38 64° E 22:13:23 10° NNE
ARIANE 5 R/B 3.5 22:06:43 11° S 22:10:47 45° W 22:15:07 10° NNW
FALCON 9 DEB 3.0 22:09:08 10° WSW 22:12:33 90° S 22:16:00 10° ENE
Cosmos 1908 4.3 22:09:04 10° NNW 22:12:44 40° W 22:16:04 12° SSW
Cosmos 2233 Rocket 4.3 22:06:45 10° N 22:12:48 56° ENE 22:17:17 18° SSE
Cosmos 1346 Rocket 4.3 22:11:16 18° SE 22:12:54 23° E 22:16:05 10° NE
H-2A R/B 3.5 22:09:18 10° NNE 22:13:21 57° ESE 22:16:08 19° S
FALCON 9 DEB 3.5 22:11:18 10° SSW 22:14:07 32° SE 22:16:55 10° ENE
GEOS 3 Rocket 4.3 22:11:18 11° ESE 22:16:13 51° NE 22:21:23 10° NNW
FALCON 9 DEB 3.8 22:18:01 27° SE 22:18:01 27° SE 22:20:40 10° E
Cosmos 1544 Rocket 4.2 22:17:36 10° NNW 22:21:57 52° W 22:25:30 15° SSW
Meteor 2-5 Rocket 3.7 22:18:55 17° S 22:23:14 65° E 22:28:48 10° NNE
FALCON 9 DEB 3.4 22:21:32 17° SSW 22:23:32 36° SE 22:26:26 10° ENE
Lacrosse 5 rocket 0.8 22:21:53 10° SW 22:25:32 80° SE 22:29:08 10° NE
Cosmos 1606 Rocket 4.5 22:22:37 10° N 22:26:47 37° ENE 22:29:16 20° SE
ATLAS 3B R/B 2.6 22:20:35 10° SSW 22:27:01 66° SE 22:33:44 10° NE
ERS-1 Rocket 3.8 22:24:30 13° S 22:28:42 45° W 22:33:34 10° NNW
Cosmos 1331 Rocket 4.5 22:25:55 10° SW 22:31:07 62° WNW 22:36:22 10° NNE
Cosmos 2333 4.2 22:27:09 10° SSW 22:32:55 90° WNW 22:38:41 10° NNE
ALOS 2 4.4 22:32:40 13° ESE 22:35:27 22° ENE 22:38:50 10° NNE
Cosmos 2016 Rocket 4.3 22:29:57 10° NNW 22:35:56 60° W 22:40:55 15° S
Cosmos 1626 3.7 22:39:08 10° SW 22:42:28 32° WNW 22:45:50 10° N
Cosmos 2333 Rocket 2.2 22:38:29 10° SSW 22:44:15 89° WNW 22:50:02 10° NNE
USA 215 3.4 22:40:21 10° ENE 22:46:43 52° SE 22:53:04 10° SSW
SL-14 R/B 4.2 22:44:01 13° SSW 22:47:25 47° WNW 22:51:20 10° N
Cosmos 1725 Rocket 4.4 22:42:05 10° NNW 22:48:07 57° W 22:52:54 17° SSW
Cosmos 1302 Rocket 4.1 22:44:59 11° SSW 22:50:00 81° WNW 22:55:17 10° NNE
Meteor 2-10 Rocket 3.4 22:46:50 10° N 22:51:59 85° ENE 22:54:49 26° SSE
Cosmos 2219 Rocket 2.2 22:49:21 10° SSW 22:55:02 85° WNW 23:00:46 10° NNE
Cosmos 1536 Rocket 4.3 22:52:13 14° SSW 22:55:51 51° WNW 23:00:13 10° N
Cosmos 1867 3.6 22:53:00 10° NW 22:58:33 90° ESE 23:01:50 25° SE
Cosmos 1607 4.3 22:53:43 10° NW 23:00:07 62° NE 23:05:04 17° SE
Cosmos 389 Rocket 2.3 22:59:29 10° NNW 23:02:55 88° WSW 23:04:01 41° S
Iridium 2 3.8 23:05:20 37° SSE 23:06:36 59° E 23:10:18 10° NNE
Meteor 1-24 Rocket 3.8 23:03:16 18° SSW 23:07:16 70° WNW 23:12:46 10° N
COBE Rocket 4.3 23:04:31 25° SE 23:07:16 54° ENE 23:12:06 10° N
SL-16 R/B 4.0 23:06:17 14° ESE 23:07:51 15° E 23:10:56 10° ENE
Cosmos 2237 Rocket 2.7 23:09:08 27° SSE 23:11:37 43° ESE 23:16:55 10° NE
Cosmos 2228 3.2 23:07:17 10° NNW 23:11:41 67° W 23:13:45 30° S
Meteor 1-4 Rocket 4.5 23:12:50 10° NNE 23:15:25 19° ENE 23:16:45 16° E
Cosmos 2360 Rocket 4.1 23:13:07 10° WSW 23:18:01 29° NW 23:22:55 10° NNE
Cosmos 1455 2.1 23:15:31 10° N 23:19:21 76° E 23:20:36 41° SSE
USA 267 3.3 23:14:47 10° ESE 23:21:15 82° NNE 23:27:49 10° NW
Cosmos 1486 Rocket 4.3 23:17:54 10° NNW 23:23:01 57° WSW 23:25:31 29° S
ATLAS CENTAUR R/B 3.0 23:19:30 10° WNW 23:23:07 25° WSW 23:24:30 21° SW
Cosmos 1184 Rocket 3.1 23:22:45 43° ESE 23:23:08 46° E 23:26:17 10° NNE
FALCON 9 DEB 2.8 23:26:41 16° WSW 23:29:03 84° NNW 23:32:13 10° ENE
Okean 1-7 Rocket 4.1 23:27:36 32° SE 23:29:11 47° E 23:33:28 10° NNE
Cosmos 968 Rocket 4.4 23:26:24 10° NW 23:31:05 37° WSW 23:33:28 24° SSW
Terra 4.0 23:28:26 10° SW 23:31:31 17° W 23:34:36 10° NW
Cosmos 2034 Rocket 4.3 23:26:07 10° N 23:32:15 59° ENE 23:35:44 26° SSE
Meteor 1-21 Rocket 4.4 23:33:20 30° SSE 23:36:05 63° E 23:41:44 10° NNE
COSMOS 2428 3.4 23:30:39 10° SW 23:36:16 55° WNW 23:41:56 10° NNE
Cosmos 1354 Rocket 4.0 23:31:31 10° NNW 23:36:54 85° WSW 23:39:29 32° SSE
Cosmos 1992 Rocket 4.1 23:34:09 22° SSW 23:37:35 74° WNW 23:42:51 10° NNE
Cosmos 192 4.4 23:38:55 34° S 23:40:54 61° ESE 23:45:47 10° NNE
Cosmos 2058 Rocket 3.0 23:38:25 10° NNW 23:42:54 80° W 23:44:34 38° S
Cosmos 2278 Rocket 2.4 23:37:37 10° NNW 23:43:12 60° WSW 23:45:51 31° S
GENESIS II 4.1 23:46:51 38° SSW 23:48:15 83° SE 23:52:11 10° NE
Cosmos 1346 Rocket 4.2 23:46:44 18° SW 23:49:04 33° WNW 23:52:45 10° N
FALCON 9 DEB 3.7 23:46:35 10° W 23:49:37 52° NNW 23:52:40 10° ENE
Cosmos 1726 Rocket 4.4 23:45:57 10° NNW 23:50:11 42° W 23:51:59 28° SW
FALCON 9 DEB 3.5 23:50:25 10° WSW 23:53:29 57° NNW 23:56:35 10° ENE
GEOS 3 Rocket 4.3 23:52:23 29° SSW 23:54:20 39° WSW 23:59:21 10° NW
